owner,sensor,date,latitude,longitude,vertical_datum,sea_water_practical_salinity,qcFlag 
DISL,ioos:station:DISL:PPTA:1,2013-11-01T00:00:00Z,30.2791,-87.5561,1.591,30.4,1111122 
DISL,ioos:station:DISL:PPTA:1,2013-11-01T00:30:00Z,30.2791,-87.5561,1.605,30.54,1111122 
DISL,ioos:station:DISL:PPTA:1,2013-11-01T01:00:00Z,30.2791,-87.5561,1.625,30.37,1111122 
DISL,ioos:station:DISL:PPTA:1,2013-11-01T01:30:00Z,30.2791,-87.5561,1.609,30.49,1111122 
DISL,ioos:station:DISL:PPTA:1,2013-11-01T02:00:00Z,30.2791,-87.5561,1.616,30.38,1111122 
DISL,ioos:station:DISL:PPTA:1,2013-11-01T02:30:00Z,30.2791,-87.5561,1.63,30.37,1111122 
DISL,ioos:station:DISL:PPTA:1,2013-11-01T03:00:00Z,30.2791,-87.5561,1.617,30.36,1111122 
DISL,ioos:station:DISL:PPTA:1,2013-11-01T03:30:00Z,30.2791,-87.5561,1.616,30.29,1111122 
DISL,ioos:station:DISL:PPTA:1,2013-11-01T04:00:00Z,30.2791,-87.5561,1.594,30.3,1111122 
DISL,ioos:station:DISL:PPTA:1,2013-11-01T04:30:00Z,30.2791,-87.5561,1.579,30.36,1111122 
DISL,ioos:station:DISL:PPTA:1,2013-11-01T05:00:00Z,30.2791,-87.5561,1.562,30.1,1111122 
DISL,ioos:station:DISL:PPTA:1,2013-11-01T05:30:00Z,30.2791,-87.5561,1.562,29.62,1111122 
DISL,ioos:station:DISL:PPTA:1,2013-11-01T06:00:00Z,30.2791,-87.5561,1.554,29.72,1111122 
DISL,ioos:station:DISL:PPTA:1,2013-11-01T06:30:00Z,30.2791,-87.5561,1.542,29.76,1111122 
DISL,ioos:station:DISL:PPTA:1,2013-11-01T07:00:00Z,30.2791,-87.5561,1.537,29.76,1111122 
DISL,ioos:station:DISL:PPTA:1,2013-11-01T07:30:00Z,30.2791,-87.5561,1.526,29.66,1111122 
DISL,ioos:station:DISL:PPTA:1,2013-11-01T08:00:00Z,30.2791,-87.5561,1.523,29.42,1111122 
DISL,ioos:station:DISL:PPTA:1,2013-11-01T08:30:00Z,30.2791,-87.5561,1.51,29.43,1111122 
DISL,ioos:station:DISL:PPTA:1,2013-11-01T09:00:00Z,30.2791,-87.5561,1.516,29.08,1111122 
DISL,ioos:station:DISL:PPTA:1,2013-11-01T09:30:00Z,30.2791,-87.5561,1.52,29.3,1111122 
DISL,ioos:station:DISL:PPTA:1,2013-11-01T10:00:00Z,30.2791,-87.5561,1.497,29.2,1111122 
DISL,ioos:station:DISL:PPTA:1,2013-11-01T10:30:00Z,30.2791,-87.5561,1.513,29.14,1111122 
DISL,ioos:station:DISL:PPTA:1,2013-11-01T11:00:00Z,30.2791,-87.5561,1.482,29.18,1111122 
DISL,ioos:station:DISL:PPTA:1,2013-11-01T11:30:00Z,30.2791,-87.5561,1.506,28.5,1111122 
DISL,ioos:station:DISL:PPTA:1,2013-11-01T12:00:00Z,30.2791,-87.5561,1.507,28.88,1111122 
DISL,ioos:station:DISL:PPTA:1,2013-11-01T12:30:00Z,30.2791,-87.5561,1.474,28.46,1111122 
DISL,ioos:station:DISL:PPTA:1,2013-11-01T13:00:00Z,30.2791,-87.5561,1.506,28.04,1111122 
DISL,ioos:station:DISL:PPTA:1,2013-11-01T13:30:00Z,30.2791,-87.5561,1.524,28.12,1111122 
DISL,ioos:station:DISL:PPTA:1,2013-11-01T14:00:00Z,30.2791,-87.5561,1.457,28.18,1111122 
DISL,ioos:station:DISL:PPTA:1,2013-11-01T14:30:00Z,30.2791,-87.5561,1.52,28.37,1111122 
DISL,ioos:station:DISL:PPTA:1,2013-11-01T15:00:00Z,30.2791,-87.5561,1.424,28.8,1111122 
DISL,ioos:station:DISL:PPTA:1,2013-11-01T15:30:00Z,30.2791,-87.5561,1.456,27.57,1111122 
DISL,ioos:station:DISL:PPTA:1,2013-11-01T16:00:00Z,30.2791,-87.5561,1.484,27.25,1111122 
DISL,ioos:station:DISL:PPTA:1,2013-11-01T16:30:00Z,30.2791,-87.5561,1.483,27.17,1111122 
DISL,ioos:station:DISL:PPTA:1,2013-11-01T17:00:00Z,30.2791,-87.5561,1.544,26.82,1111122 
DISL,ioos:station:DISL:PPTA:1,2013-11-01T17:30:00Z,30.2791,-87.5561,1.496,26.56,1111122 
DISL,ioos:station:DISL:PPTA:1,2013-11-01T18:00:00Z,30.2791,-87.5561,1.501,27.63,1111122 
DISL,ioos:station:DISL:PPTA:1,2013-11-01T18:30:00Z,30.2791,-87.5561,1.494,27.81,1111122 
DISL,ioos:station:DISL:PPTA:1,2013-11-01T19:00:00Z,30.2791,-87.5561,1.454,28.18,1111122 
DISL,ioos:station:DISL:PPTA:1,2013-11-01T19:30:00Z,30.2791,-87.5561,1.483,27.54,1111122 
DISL,ioos:station:DISL:PPTA:1,2013-11-01T20:00:00Z,30.2791,-87.5561,1.495,29.96,1111122 
DISL,ioos:station:DISL:PPTA:1,2013-11-01T20:30:00Z,30.2791,-87.5561,1.513,30.46,1111122 
DISL,ioos:station:DISL:PPTA:1,2013-11-01T21:00:00Z,30.2791,-87.5561,1.556,31.57,1111122 
DISL,ioos:station:DISL:PPTA:1,2013-11-01T21:30:00Z,30.2791,-87.5561,1.519,31.59,1111122 
DISL,ioos:station:DISL:PPTA:1,2013-11-01T22:00:00Z,30.2791,-87.5561,1.539,31.55,1111122 
DISL,ioos:station:DISL:PPTA:1,2013-11-01T22:30:00Z,30.2791,-87.5561,1.564,32.24,1111122 
DISL,ioos:station:DISL:PPTA:1,2013-11-01T23:00:00Z,30.2791,-87.5561,1.549,31.31,1111122 
DISL,ioos:station:DISL:PPTA:1,2013-11-01T23:30:00Z,30.2791,-87.5561,1.604,28.16,1111122 
DISL,ioos:station:DISL:PPTA:1,2013-11-02T00:00:00Z,30.2791,-87.5561,1.594,30.94,1111122 
DISL,ioos:station:DISL:PPTA:1,2013-11-02T00:30:00Z,30.2791,-87.5561,1.591,31.31,1111122 
DISL,ioos:station:DISL:PPTA:1,2013-11-02T01:00:00Z,30.2791,-87.5561,1.596,29.97,1111122 
DISL,ioos:station:DISL:PPTA:1,2013-11-02T01:30:00Z,30.2791,-87.5561,1.624,31.11,1111122 
DISL,ioos:station:DISL:PPTA:1,2013-11-02T02:00:00Z,30.2791,-87.5561,1.601,31.32,1111122 
DISL,ioos:station:DISL:PPTA:1,2013-11-02T02:30:00Z,30.2791,-87.5561,1.6,29.07,1111122 
DISL,ioos:station:DISL:PPTA:1,2013-11-02T03:00:00Z,30.2791,-87.5561,1.599,31.44,1111122 
DISL,ioos:station:DISL:PPTA:1,2013-11-02T03:30:00Z,30.2791,-87.5561,1.593,31.3,1111122 
DISL,ioos:station:DISL:PPTA:1,2013-11-02T04:00:00Z,30.2791,-87.5561,1.577,29.52,1111122 
DISL,ioos:station:DISL:PPTA:1,2013-11-02T04:30:00Z,30.2791,-87.5561,1.552,31.04,1111122 
DISL,ioos:station:DISL:PPTA:1,2013-11-02T05:00:00Z,30.2791,-87.5561,1.554,29.81,1111122 
DISL,ioos:station:DISL:PPTA:1,2013-11-02T05:30:00Z,30.2791,-87.5561,1.529,30.44,1111122 
DISL,ioos:station:DISL:PPTA:1,2013-11-02T06:00:00Z,30.2791,-87.5561,1.533,30.71,1111122 
DISL,ioos:station:DISL:PPTA:1,2013-11-02T06:30:00Z,30.2791,-87.5561,1.513,31.02,1111122 
DISL,ioos:station:DISL:PPTA:1,2013-11-02T07:00:00Z,30.2791,-87.5561,1.505,30.9,1111122 
DISL,ioos:station:DISL:PPTA:1,2013-11-02T07:30:00Z,30.2791,-87.5561,1.481,29.89,1111122 
DISL,ioos:station:DISL:PPTA:1,2013-11-02T08:00:00Z,30.2791,-87.5561,1.469,29.16,1111122 
DISL,ioos:station:DISL:PPTA:1,2013-11-02T08:30:00Z,30.2791,-87.5561,1.44,29.1,1111122 
DISL,ioos:station:DISL:PPTA:1,2013-11-02T09:00:00Z,30.2791,-87.5561,1.432,27.64,1111122 
DISL,ioos:station:DISL:PPTA:1,2013-11-02T09:30:00Z,30.2791,-87.5561,1.434,27.68,1111122 
DISL,ioos:station:DISL:PPTA:1,2013-11-02T10:00:00Z,30.2791,-87.5561,1.416,27.67,1111122 
DISL,ioos:station:DISL:PPTA:1,2013-11-02T10:30:00Z,30.2791,-87.5561,1.416,28.0,1111122 
DISL,ioos:station:DISL:PPTA:1,2013-11-02T11:00:00Z,30.2791,-87.5561,1.416,26.36,1111122 
DISL,ioos:station:DISL:PPTA:1,2013-11-02T11:30:00Z,30.2791,-87.5561,1.389,27.11,1111122 
DISL,ioos:station:DISL:PPTA:1,2013-11-02T12:00:00Z,30.2791,-87.5561,1.374,26.96,1111122 
DISL,ioos:station:DISL:PPTA:1,2013-11-02T12:30:00Z,30.2791,-87.5561,1.368,27.17,1111122 
DISL,ioos:station:DISL:PPTA:1,2013-11-02T13:00:00Z,30.2791,-87.5561,1.347,26.52,1111122 
DISL,ioos:station:DISL:PPTA:1,2013-11-02T13:30:00Z,30.2791,-87.5561,1.372,24.71,1111122 
DISL,ioos:station:DISL:PPTA:1,2013-11-02T14:00:00Z,30.2791,-87.5561,1.346,25.54,1111122 
DISL,ioos:station:DISL:PPTA:1,2013-11-02T14:30:00Z,30.2791,-87.5561,1.366,24.2,1111122 
DISL,ioos:station:DISL:PPTA:1,2013-11-02T15:00:00Z,30.2791,-87.5561,1.364,24.16,1111122 
DISL,ioos:station:DISL:PPTA:1,2013-11-02T15:30:00Z,30.2791,-87.5561,1.362,24.33,1111122 
DISL,ioos:station:DISL:PPTA:1,2013-11-02T16:00:00Z,30.2791,-87.5561,1.374,24.38,1111122 
DISL,ioos:station:DISL:PPTA:1,2013-11-02T16:30:00Z,30.2791,-87.5561,1.351,26.06,1111122 
DISL,ioos:station:DISL:PPTA:1,2013-11-02T17:00:00Z,30.2791,-87.5561,1.328,27.47,1111122 
DISL,ioos:station:DISL:PPTA:1,2013-11-02T17:30:00Z,30.2791,-87.5561,1.358,27.02,1111122 
DISL,ioos:station:DISL:PPTA:1,2013-11-02T18:00:00Z,30.2791,-87.5561,1.341,28.33,1111122 
DISL,ioos:station:DISL:PPTA:1,2013-11-02T18:30:00Z,30.2791,-87.5561,1.34,28.15,1111122 
DISL,ioos:station:DISL:PPTA:1,2013-11-02T19:00:00Z,30.2791,-87.5561,1.327,28.61,1111122 
DISL,ioos:station:DISL:PPTA:1,2013-11-02T19:30:00Z,30.2791,-87.5561,1.337,29.73,1111122 
DISL,ioos:station:DISL:PPTA:1,2013-11-02T20:00:00Z,30.2791,-87.5561,1.355,31.35,1111122 
DISL,ioos:station:DISL:PPTA:1,2013-11-02T20:30:00Z,30.2791,-87.5561,1.35,31.16,1111122 
DISL,ioos:station:DISL:PPTA:1,2013-11-02T21:00:00Z,30.2791,-87.5561,1.382,32.53,1111122 
DISL,ioos:station:DISL:PPTA:1,2013-11-02T21:30:00Z,30.2791,-87.5561,1.379,32.2,1111122 
DISL,ioos:station:DISL:PPTA:1,2013-11-02T22:00:00Z,30.2791,-87.5561,1.377,32.22,1111122 
DISL,ioos:station:DISL:PPTA:1,2013-11-02T22:30:00Z,30.2791,-87.5561,1.417,32.61,1111122 
DISL,ioos:station:DISL:PPTA:1,2013-11-02T23:00:00Z,30.2791,-87.5561,1.413,32.73,1111122 
DISL,ioos:station:DISL:PPTA:1,2013-11-02T23:30:00Z,30.2791,-87.5561,1.426,31.07,1111122 
DISL,ioos:station:DISL:PPTA:1,2013-11-03T00:00:00Z,30.2791,-87.5561,1.447,30.93,1111122 
DISL,ioos:station:DISL:PPTA:1,2013-11-03T00:30:00Z,30.2791,-87.5561,1.441,30.22,1111122 
DISL,ioos:station:DISL:PPTA:1,2013-11-03T01:00:00Z,30.2791,-87.5561,1.433,31.55,1111122 
DISL,ioos:station:DISL:PPTA:1,2013-11-03T01:30:00Z,30.2791,-87.5561,1.418,32.3,1111122 
DISL,ioos:station:DISL:PPTA:1,2013-11-03T02:00:00Z,30.2791,-87.5561,1.428,31.52,1111122 
DISL,ioos:station:DISL:PPTA:1,2013-11-03T02:30:00Z,30.2791,-87.5561,1.428,30.84,1111122 
DISL,ioos:station:DISL:PPTA:1,2013-11-03T03:00:00Z,30.2791,-87.5561,1.404,31.97,1111122 
DISL,ioos:station:DISL:PPTA:1,2013-11-03T03:30:00Z,30.2791,-87.5561,1.411,26.66,1111122 
DISL,ioos:station:DISL:PPTA:1,2013-11-03T04:00:00Z,30.2791,-87.5561,1.412,28.35,1111122 
DISL,ioos:station:DISL:PPTA:1,2013-11-03T04:30:00Z,30.2791,-87.5561,1.4,28.04,1111122 
DISL,ioos:station:DISL:PPTA:1,2013-11-03T05:00:00Z,30.2791,-87.5561,1.383,30.25,1111122 
DISL,ioos:station:DISL:PPTA:1,2013-11-03T05:30:00Z,30.2791,-87.5561,1.348,29.17,1111122 
DISL,ioos:station:DISL:PPTA:1,2013-11-03T06:00:00Z,30.2791,-87.5561,1.326,29.57,1111122 
DISL,ioos:station:DISL:PPTA:1,2013-11-03T06:30:00Z,30.2791,-87.5561,1.295,29.67,1111122 
DISL,ioos:station:DISL:PPTA:1,2013-11-03T07:00:00Z,30.2791,-87.5561,1.278,29.08,1111122 
DISL,ioos:station:DISL:PPTA:1,2013-11-03T07:30:00Z,30.2791,-87.5561,1.26,28.27,1111122 
DISL,ioos:station:DISL:PPTA:1,2013-11-03T08:00:00Z,30.2791,-87.5561,1.237,27.94,1111122 
DISL,ioos:station:DISL:PPTA:1,2013-11-03T08:30:00Z,30.2791,-87.5561,1.227,26.6,1111122 
DISL,ioos:station:DISL:PPTA:1,2013-11-03T09:00:00Z,30.2791,-87.5561,1.222,26.09,1111122 
DISL,ioos:station:DISL:PPTA:1,2013-11-03T09:30:00Z,30.2791,-87.5561,1.194,25.39,1111122 
DISL,ioos:station:DISL:PPTA:1,2013-11-03T10:00:00Z,30.2791,-87.5561,1.175,25.11,1111122 
DISL,ioos:station:DISL:PPTA:1,2013-11-03T10:30:00Z,30.2791,-87.5561,1.174,24.96,1111122 
DISL,ioos:station:DISL:PPTA:1,2013-11-03T11:00:00Z,30.2791,-87.5561,1.161,24.86,1111122 
DISL,ioos:station:DISL:PPTA:1,2013-11-03T11:30:00Z,30.2791,-87.5561,1.172,24.66,1111122 
DISL,ioos:station:DISL:PPTA:1,2013-11-03T12:00:00Z,30.2791,-87.5561,1.165,24.86,1111122 
DISL,ioos:station:DISL:PPTA:1,2013-11-03T12:30:00Z,30.2791,-87.5561,1.156,24.75,1111122 
DISL,ioos:station:DISL:PPTA:1,2013-11-03T13:00:00Z,30.2791,-87.5561,1.171,24.48,1111122 
DISL,ioos:station:DISL:PPTA:1,2013-11-03T13:30:00Z,30.2791,-87.5561,1.173,24.29,1111122 
DISL,ioos:station:DISL:PPTA:1,2013-11-03T14:00:00Z,30.2791,-87.5561,1.17,24.21,1111122 
DISL,ioos:station:DISL:PPTA:1,2013-11-03T14:30:00Z,30.2791,-87.5561,1.18,23.79,1111122 
DISL,ioos:station:DISL:PPTA:1,2013-11-03T15:00:00Z,30.2791,-87.5561,1.184,24.31,1111122 
DISL,ioos:station:DISL:PPTA:1,2013-11-03T15:30:00Z,30.2791,-87.5561,1.191,23.56,1111122 
DISL,ioos:station:DISL:PPTA:1,2013-11-03T16:00:00Z,30.2791,-87.5561,1.188,24.45,1111122 
DISL,ioos:station:DISL:PPTA:1,2013-11-03T16:30:00Z,30.2791,-87.5561,1.193,24.42,1111122 
DISL,ioos:station:DISL:PPTA:1,2013-11-03T17:00:00Z,30.2791,-87.5561,1.2,25.88,1111122 
DISL,ioos:station:DISL:PPTA:1,2013-11-03T17:30:00Z,30.2791,-87.5561,1.202,28.18,1111122 
DISL,ioos:station:DISL:PPTA:1,2013-11-03T18:00:00Z,30.2791,-87.5561,1.213,31.05,1111122 
DISL,ioos:station:DISL:PPTA:1,2013-11-03T18:30:00Z,30.2791,-87.5561,1.218,30.81,1111122 
DISL,ioos:station:DISL:PPTA:1,2013-11-03T19:00:00Z,30.2791,-87.5561,1.226,31.4,1111122 
DISL,ioos:station:DISL:PPTA:1,2013-11-03T19:30:00Z,30.2791,-87.5561,1.236,32.2,1111122 
DISL,ioos:station:DISL:PPTA:1,2013-11-03T20:00:00Z,30.2791,-87.5561,1.239,31.69,1111122 
DISL,ioos:station:DISL:PPTA:1,2013-11-03T20:30:00Z,30.2791,-87.5561,1.266,32.34,1111122 
DISL,ioos:station:DISL:PPTA:1,2013-11-03T21:00:00Z,30.2791,-87.5561,1.278,32.37,1111122 
DISL,ioos:station:DISL:PPTA:1,2013-11-03T21:30:00Z,30.2791,-87.5561,1.29,32.32,1111122 
DISL,ioos:station:DISL:PPTA:1,2013-11-03T22:00:00Z,30.2791,-87.5561,1.311,32.27,1111122 
DISL,ioos:station:DISL:PPTA:1,2013-11-03T22:30:00Z,30.2791,-87.5561,1.324,31.8,1111122 
DISL,ioos:station:DISL:PPTA:1,2013-11-03T23:00:00Z,30.2791,-87.5561,1.352,32.27,1111122 
DISL,ioos:station:DISL:PPTA:1,2013-11-03T23:30:00Z,30.2791,-87.5561,1.369,32.22,1111122 
DISL,ioos:station:DISL:PPTA:1,2013-11-04T00:00:00Z,30.2791,-87.5561,1.393,32.16,1111122 
DISL,ioos:station:DISL:PPTA:1,2013-11-04T00:30:00Z,30.2791,-87.5561,1.42,29.26,1111122 
DISL,ioos:station:DISL:PPTA:1,2013-11-04T01:00:00Z,30.2791,-87.5561,1.429,30.03,1111122 
DISL,ioos:station:DISL:PPTA:1,2013-11-04T01:30:00Z,30.2791,-87.5561,1.439,28.96,1111122 
DISL,ioos:station:DISL:PPTA:1,2013-11-04T02:00:00Z,30.2791,-87.5561,1.447,31.07,1111122 
DISL,ioos:station:DISL:PPTA:1,2013-11-04T02:30:00Z,30.2791,-87.5561,1.449,32.13,1111122 
DISL,ioos:station:DISL:PPTA:1,2013-11-04T03:00:00Z,30.2791,-87.5561,1.459,31.05,1111122 
DISL,ioos:station:DISL:PPTA:1,2013-11-04T03:30:00Z,30.2791,-87.5561,1.455,29.68,1111122 
DISL,ioos:station:DISL:PPTA:1,2013-11-04T04:00:00Z,30.2791,-87.5561,1.444,30.78,1111122 
DISL,ioos:station:DISL:PPTA:1,2013-11-04T04:30:00Z,30.2791,-87.5561,1.447,30.56,1111122 
DISL,ioos:station:DISL:PPTA:1,2013-11-04T05:00:00Z,30.2791,-87.5561,1.426,30.9,1111122 
DISL,ioos:station:DISL:PPTA:1,2013-11-04T05:30:00Z,30.2791,-87.5561,1.401,29.78,1111122 
DISL,ioos:station:DISL:PPTA:1,2013-11-04T06:00:00Z,30.2791,-87.5561,1.39,30.99,1111122 
DISL,ioos:station:DISL:PPTA:1,2013-11-04T06:30:00Z,30.2791,-87.5561,1.383,30.95,1111122 
DISL,ioos:station:DISL:PPTA:1,2013-11-04T07:00:00Z,30.2791,-87.5561,1.364,31.1,1111122 
DISL,ioos:station:DISL:PPTA:1,2013-11-04T07:30:00Z,30.2791,-87.5561,1.335,30.69,1111122 
DISL,ioos:station:DISL:PPTA:1,2013-11-04T08:00:00Z,30.2791,-87.5561,1.315,31.31,1111122 
DISL,ioos:station:DISL:PPTA:1,2013-11-04T08:30:00Z,30.2791,-87.5561,1.295,30.39,1111122 
DISL,ioos:station:DISL:PPTA:1,2013-11-04T09:00:00Z,30.2791,-87.5561,1.276,30.36,1111122 
DISL,ioos:station:DISL:PPTA:1,2013-11-04T09:30:00Z,30.2791,-87.5561,1.25,30.29,1111122 
DISL,ioos:station:DISL:PPTA:1,2013-11-04T10:00:00Z,30.2791,-87.5561,1.249,29.02,1111122 
DISL,ioos:station:DISL:PPTA:1,2013-11-04T10:30:00Z,30.2791,-87.5561,1.251,28.21,1111122 
DISL,ioos:station:DISL:PPTA:1,2013-11-04T11:00:00Z,30.2791,-87.5561,1.219,28.11,1111122 
DISL,ioos:station:DISL:PPTA:1,2013-11-04T11:30:00Z,30.2791,-87.5561,1.195,27.25,1111122 
DISL,ioos:station:DISL:PPTA:1,2013-11-04T12:00:00Z,30.2791,-87.5561,1.2,27.86,1111122 
DISL,ioos:station:DISL:PPTA:1,2013-11-04T12:30:00Z,30.2791,-87.5561,1.185,27.9,1111122 
DISL,ioos:station:DISL:PPTA:1,2013-11-04T13:00:00Z,30.2791,-87.5561,1.181,27.2,1111122 
DISL,ioos:station:DISL:PPTA:1,2013-11-04T13:30:00Z,30.2791,-87.5561,1.168,26.78,1111122 
DISL,ioos:station:DISL:PPTA:1,2013-11-04T14:00:00Z,30.2791,-87.5561,1.157,26.06,1111122 
DISL,ioos:station:DISL:PPTA:1,2013-11-04T14:30:00Z,30.2791,-87.5561,1.161,25.38,1111122 
DISL,ioos:station:DISL:PPTA:1,2013-11-04T15:00:00Z,30.2791,-87.5561,1.163,25.05,1111122 
DISL,ioos:station:DISL:PPTA:1,2013-11-04T15:30:00Z,30.2791,-87.5561,1.158,24.94,1111122 
DISL,ioos:station:DISL:PPTA:1,2013-11-04T16:00:00Z,30.2791,-87.5561,1.169,24.83,1111122 
DISL,ioos:station:DISL:PPTA:1,2013-11-04T16:30:00Z,30.2791,-87.5561,1.174,24.7,1111122 
DISL,ioos:station:DISL:PPTA:1,2013-11-04T17:00:00Z,30.2791,-87.5561,1.192,23.68,1111122 
DISL,ioos:station:DISL:PPTA:1,2013-11-04T17:30:00Z,30.2791,-87.5561,1.169,24.02,1111122 
DISL,ioos:station:DISL:PPTA:1,2013-11-04T18:00:00Z,30.2791,-87.5561,1.175,24.15,1111122 
DISL,ioos:station:DISL:PPTA:1,2013-11-04T18:30:00Z,30.2791,-87.5561,1.178,23.57,1111122 
DISL,ioos:station:DISL:PPTA:1,2013-11-04T19:00:00Z,30.2791,-87.5561,1.19,25.71,1111122 
DISL,ioos:station:DISL:PPTA:1,2013-11-04T19:30:00Z,30.2791,-87.5561,1.2,25.25,1111122 
DISL,ioos:station:DISL:PPTA:1,2013-11-04T20:00:00Z,30.2791,-87.5561,1.205,26.48,1111122 
DISL,ioos:station:DISL:PPTA:1,2013-11-04T20:30:00Z,30.2791,-87.5561,1.227,28.95,1111122 
DISL,ioos:station:DISL:PPTA:1,2013-11-04T21:00:00Z,30.2791,-87.5561,1.226,31.11,1111122 
DISL,ioos:station:DISL:PPTA:1,2013-11-04T21:30:00Z,30.2791,-87.5561,1.252,31.54,1111122 
DISL,ioos:station:DISL:PPTA:1,2013-11-04T22:00:00Z,30.2791,-87.5561,1.276,32.01,1111122 
DISL,ioos:station:DISL:PPTA:1,2013-11-04T22:30:00Z,30.2791,-87.5561,1.289,32.39,1111122 
DISL,ioos:station:DISL:PPTA:1,2013-11-04T23:00:00Z,30.2791,-87.5561,1.32,32.44,1111122 
DISL,ioos:station:DISL:PPTA:1,2013-11-04T23:30:00Z,30.2791,-87.5561,1.348,32.39,1111122 
DISL,ioos:station:DISL:PPTA:1,2013-11-05T00:00:00Z,30.2791,-87.5561,1.379,32.41,1111122 
DISL,ioos:station:DISL:PPTA:1,2013-11-05T00:30:00Z,30.2791,-87.5561,1.401,32.45,1111122 
DISL,ioos:station:DISL:PPTA:1,2013-11-05T01:00:00Z,30.2791,-87.5561,1.436,32.31,1111122 
DISL,ioos:station:DISL:PPTA:1,2013-11-05T01:30:00Z,30.2791,-87.5561,1.459,32.44,1111122 
DISL,ioos:station:DISL:PPTA:1,2013-11-05T02:00:00Z,30.2791,-87.5561,1.478,32.24,1111122 
DISL,ioos:station:DISL:PPTA:1,2013-11-05T02:30:00Z,30.2791,-87.5561,1.497,32.37,1111122 
DISL,ioos:station:DISL:PPTA:1,2013-11-05T03:00:00Z,30.2791,-87.5561,1.499,32.3,1111122 
DISL,ioos:station:DISL:PPTA:1,2013-11-05T03:30:00Z,30.2791,-87.5561,1.486,32.24,1111122 
DISL,ioos:station:DISL:PPTA:1,2013-11-05T04:00:00Z,30.2791,-87.5561,1.496,31.97,1111122 
DISL,ioos:station:DISL:PPTA:1,2013-11-05T04:30:00Z,30.2791,-87.5561,1.494,31.57,1111122 
DISL,ioos:station:DISL:PPTA:1,2013-11-05T05:00:00Z,30.2791,-87.5561,1.497,31.61,1111122 
DISL,ioos:station:DISL:PPTA:1,2013-11-05T05:30:00Z,30.2791,-87.5561,1.54,31.76,1111122 
DISL,ioos:station:DISL:PPTA:1,2013-11-05T06:00:00Z,30.2791,-87.5561,1.525,31.27,1111122 
DISL,ioos:station:DISL:PPTA:1,2013-11-05T06:30:00Z,30.2791,-87.5561,1.537,30.31,1111122 
DISL,ioos:station:DISL:PPTA:1,2013-11-05T07:00:00Z,30.2791,-87.5561,1.49,30.7,1111122 
DISL,ioos:station:DISL:PPTA:1,2013-11-05T07:30:00Z,30.2791,-87.5561,1.462,30.44,1111122 
DISL,ioos:station:DISL:PPTA:1,2013-11-05T08:00:00Z,30.2791,-87.5561,1.432,29.45,1111122 
DISL,ioos:station:DISL:PPTA:1,2013-11-05T08:30:00Z,30.2791,-87.5561,1.42,27.47,1111122 
DISL,ioos:station:DISL:PPTA:1,2013-11-05T09:00:00Z,30.2791,-87.5561,1.403,27.43,1111122 
DISL,ioos:station:DISL:PPTA:1,2013-11-05T09:30:00Z,30.2791,-87.5561,1.392,27.31,1111122 
DISL,ioos:station:DISL:PPTA:1,2013-11-05T10:00:00Z,30.2791,-87.5561,1.361,26.8,1111122 
DISL,ioos:station:DISL:PPTA:1,2013-11-05T10:30:00Z,30.2791,-87.5561,1.364,27.96,1111122 
DISL,ioos:station:DISL:PPTA:1,2013-11-05T11:00:00Z,30.2791,-87.5561,1.342,25.43,1111122 
DISL,ioos:station:DISL:PPTA:1,2013-11-05T11:30:00Z,30.2791,-87.5561,1.331,25.59,1111122 
DISL,ioos:station:DISL:PPTA:1,2013-11-05T12:00:00Z,30.2791,-87.5561,1.316,29.65,1111122 
DISL,ioos:station:DISL:PPTA:1,2013-11-05T12:30:00Z,30.2791,-87.5561,1.293,30.06,1111122 
DISL,ioos:station:DISL:PPTA:1,2013-11-05T13:00:00Z,30.2791,-87.5561,1.28,29.3,1111122 
DISL,ioos:station:DISL:PPTA:1,2013-11-05T13:30:00Z,30.2791,-87.5561,1.305,29.09,1111122 
DISL,ioos:station:DISL:PPTA:1,2013-11-05T14:00:00Z,30.2791,-87.5561,1.294,29.07,1111122 
DISL,ioos:station:DISL:PPTA:1,2013-11-05T14:30:00Z,30.2791,-87.5561,1.295,28.73,1111122 
DISL,ioos:station:DISL:PPTA:1,2013-11-05T15:00:00Z,30.2791,-87.5561,1.281,28.86,1111122 
DISL,ioos:station:DISL:PPTA:1,2013-11-05T15:30:00Z,30.2791,-87.5561,1.269,28.73,1111122 
DISL,ioos:station:DISL:PPTA:1,2013-11-05T16:00:00Z,30.2791,-87.5561,1.266,28.71,1111122 
DISL,ioos:station:DISL:PPTA:1,2013-11-05T16:30:00Z,30.2791,-87.5561,1.267,28.19,1111122 
DISL,ioos:station:DISL:PPTA:1,2013-11-05T17:00:00Z,30.2791,-87.5561,1.258,27.2,1111122 
DISL,ioos:station:DISL:PPTA:1,2013-11-05T17:30:00Z,30.2791,-87.5561,1.271,26.16,1111122 
DISL,ioos:station:DISL:PPTA:1,2013-11-05T18:00:00Z,30.2791,-87.5561,1.262,26.71,1111122 
DISL,ioos:station:DISL:PPTA:1,2013-11-05T18:30:00Z,30.2791,-87.5561,1.248,25.85,1111122 
DISL,ioos:station:DISL:PPTA:1,2013-11-05T19:00:00Z,30.2791,-87.5561,1.258,27.86,1111122 
DISL,ioos:station:DISL:PPTA:1,2013-11-05T19:30:00Z,30.2791,-87.5561,1.263,27.76,1111122 
DISL,ioos:station:DISL:PPTA:1,2013-11-05T20:00:00Z,30.2791,-87.5561,1.258,27.64,1111122 
DISL,ioos:station:DISL:PPTA:1,2013-11-05T20:30:00Z,30.2791,-87.5561,1.3,28.68,1111122 
DISL,ioos:station:DISL:PPTA:1,2013-11-05T21:00:00Z,30.2791,-87.5561,1.299,27.59,1111122 
DISL,ioos:station:DISL:PPTA:1,2013-11-05T21:30:00Z,30.2791,-87.5561,1.306,28.27,1111122 
DISL,ioos:station:DISL:PPTA:1,2013-11-05T22:00:00Z,30.2791,-87.5561,1.305,28.79,1111122 
DISL,ioos:station:DISL:PPTA:1,2013-11-05T22:30:00Z,30.2791,-87.5561,1.335,28.57,1111122 
DISL,ioos:station:DISL:PPTA:1,2013-11-05T23:00:00Z,30.2791,-87.5561,1.362,28.35,1111122 
DISL,ioos:station:DISL:PPTA:1,2013-11-05T23:30:00Z,30.2791,-87.5561,1.372,29.08,1111122 
DISL,ioos:station:DISL:PPTA:1,2013-11-06T00:00:00Z,30.2791,-87.5561,1.412,29.02,1111122 
DISL,ioos:station:DISL:PPTA:1,2013-11-06T00:30:00Z,30.2791,-87.5561,1.454,29.34,1111122 
DISL,ioos:station:DISL:PPTA:1,2013-11-06T01:00:00Z,30.2791,-87.5561,1.472,29.31,1111122 
DISL,ioos:station:DISL:PPTA:1,2013-11-06T01:30:00Z,30.2791,-87.5561,1.493,29.4,1111122 
DISL,ioos:station:DISL:PPTA:1,2013-11-06T02:00:00Z,30.2791,-87.5561,1.517,29.46,1111122 
DISL,ioos:station:DISL:PPTA:1,2013-11-06T02:30:00Z,30.2791,-87.5561,1.536,29.5,1111122 
DISL,ioos:station:DISL:PPTA:1,2013-11-06T03:00:00Z,30.2791,-87.5561,1.544,27.25,1111122 
DISL,ioos:station:DISL:PPTA:1,2013-11-06T03:30:00Z,30.2791,-87.5561,1.562,28.74,1111122 
DISL,ioos:station:DISL:PPTA:1,2013-11-06T04:00:00Z,30.2791,-87.5561,1.571,29.05,1111122 
DISL,ioos:station:DISL:PPTA:1,2013-11-06T04:30:00Z,30.2791,-87.5561,1.565,28.79,1111122 
DISL,ioos:station:DISL:PPTA:1,2013-11-06T05:00:00Z,30.2791,-87.5561,1.564,29.38,1111122 
DISL,ioos:station:DISL:PPTA:1,2013-11-06T05:30:00Z,30.2791,-87.5561,1.577,29.62,1111122 
DISL,ioos:station:DISL:PPTA:1,2013-11-06T06:00:00Z,30.2791,-87.5561,1.575,29.62,1111122 
DISL,ioos:station:DISL:PPTA:1,2013-11-06T06:30:00Z,30.2791,-87.5561,1.58,29.98,1111122 
DISL,ioos:station:DISL:PPTA:1,2013-11-06T07:00:00Z,30.2791,-87.5561,1.524,30.32,1111122 
DISL,ioos:station:DISL:PPTA:1,2013-11-06T07:30:00Z,30.2791,-87.5561,1.52,29.36,1111122 
DISL,ioos:station:DISL:PPTA:1,2013-11-06T08:00:00Z,30.2791,-87.5561,1.513,28.94,1111122 
DISL,ioos:station:DISL:PPTA:1,2013-11-06T08:30:00Z,30.2791,-87.5561,1.469,30.3,1111122 
DISL,ioos:station:DISL:PPTA:1,2013-11-06T09:00:00Z,30.2791,-87.5561,1.477,28.07,1111122 
DISL,ioos:station:DISL:PPTA:1,2013-11-06T09:30:00Z,30.2791,-87.5561,1.441,28.35,1111122 
DISL,ioos:station:DISL:PPTA:1,2013-11-06T10:00:00Z,30.2791,-87.5561,1.419,29.59,1111122 
DISL,ioos:station:DISL:PPTA:1,2013-11-06T10:30:00Z,30.2791,-87.5561,1.401,29.74,1111122 
DISL,ioos:station:DISL:PPTA:1,2013-11-06T11:00:00Z,30.2791,-87.5561,1.384,29.65,1111122 
DISL,ioos:station:DISL:PPTA:1,2013-11-06T11:30:00Z,30.2791,-87.5561,1.377,29.44,1111122 
DISL,ioos:station:DISL:PPTA:1,2013-11-06T12:00:00Z,30.2791,-87.5561,1.353,29.24,1111122 
DISL,ioos:station:DISL:PPTA:1,2013-11-06T12:30:00Z,30.2791,-87.5561,1.336,29.25,1111122 
DISL,ioos:station:DISL:PPTA:1,2013-11-06T13:00:00Z,30.2791,-87.5561,1.328,28.94,1111122 
DISL,ioos:station:DISL:PPTA:1,2013-11-06T13:30:00Z,30.2791,-87.5561,1.327,28.8,1111122 
DISL,ioos:station:DISL:PPTA:1,2013-11-06T14:00:00Z,30.2791,-87.5561,1.308,28.72,1111122 